Regional Weather Roundup
Issued by NWS Grand Forks, ND

Home | Current Version | Previous Version | Graphics & Text | Print | Product List | Glossary On
Versions: 1 2 3 4 5 6 7 8 9 10 11 12 13 14 15 16 17 18 19 20 21 22 23 24 25 26 27 28 29 30 31 32 33 34 35 36 37 38 39 40 41 42 43 44 45 46 47 48 49 50
000
ASUS43 KFGF 231731
RWRFGF
PRAIRIE TO PINES  WEATHER ROUNDUP
NATIONAL WEATHER SERVICE EASTERN NORTH DAKOTA/GRAND FORKS ND
1100 AM CST MON JAN 23 2017

 **SATELLITE DATA USED TO AUGMENT SKY COVER AT AUTOMATED STATIONS**
 *****  WEATHER ACROSS EASTERN NORTH DAKOTA  *****

CITY           SKY/WX    TMP DP  RH WIND       PRES   REMARKS
GRAND FORKS    CLOUDY    32  24  72 W12       29.80S WCI  23
GRAND FRKS AFB CLOUDY    31  23  73 W8        29.79F WCI  23
DEVILS LAKE    CLOUDY    27  22  81 W20       29.78S WCI  13
FARGO          CLOUDY    35  29  78 W8        29.82S
WAHPETON ARPT  CLOUDY    32  28  86 W3        29.84S
$$

 ***** WEATHER ACROSS CENTRAL AND WESTERN NORTH DAKOTA  *****

CITY           SKY/WX    TMP DP  RH WIND       PRES   REMARKS
BISMARCK       CLOUDY    30  24  78 SW3       29.80S
MINOT          CLOUDY    27  21  78 W14       29.77R WCI  16
JAMESTOWN      CLOUDY    29  22  75 W7        29.79S WCI  22
MINOT AFB      CLOUDY    23  19  86 W16       29.77R WCI  10
GARRISON         N/A     30  24  78 W5        29.76S
WILLISTON      CLOUDY    24  21  88 NE7       29.80S WCI  16
DICKINSON      CLOUDY    23  20  88 SE6       29.72S WCI  16
HETTINGER      FOG       22  21  96 E9        29.74R VSB 1/4 WCI  12
$$

 *****  OTHER AIRPORT OBSERVATIONS IN OUR AREA  *****

CITY           SKY/WX    TMP DP  RH WIND       PRES   REMARKS
WALHALLA       NOT AVBL
GRAFTON AIRPOR PTSUNNY   30  25  80 W14       29.81R WCI  20
VALLEY CITY AR CLOUDY    30  27  86 W9        29.81F WCI  22
CANDO          NOT AVBL
CAVALIER APRT  CLOUDY    30  25  80 SW12      29.77S WCI  21
GWINNER        CLOUDY    32  28  86 W9        29.83S WCI  24
SHEYENNE NWR     N/A     33  25  72 W7        29.95S
ROLLA            N/A    N/A N/A N/A MISG        N/A
 ***** THE ABOVE OBSERVATIONS ARE NON NWS ARE NOT QUALITY
       CONTROLLED AND MAY MIS-REPORT RAIN FOR SNOW...
$$

  *****  WEATHER ACROSS NORTHERN MINNESOTA  *****

CITY           SKY/WX    TMP DP  RH WIND       PRES   REMARKS
FLAG ISLAND    CLOUDY    32  30  93 SW6       29.73R FOG
WARROAD        CLOUDY    32  28  86 SW6       29.76R
ROSEAU         FAIR      32  27  80 SW7       29.76R
HALLOCK        CLOUDY    30  28  93 W13       29.77R WCI  20
THF RVR FALLS  CLOUDY    28  25  86 W16       29.79F WCI  17
BAUDETTE       CLOUDY    32  30  92 SW7       29.74R FOG
WASKISH        CLOUDY    32  30  93 SW7       29.78R
CROOKSTON      CLOUDY    30  27  86 NW7       29.81S WCI  23
STEPHEN NDAWN    N/A     28  25  86 W14         N/A  WCI  17
GREENBUSH NDAW   N/A     30  28  93 SW8         N/A  WCI  23
$$
  *****  WEATHER ACROSS CENTRAL AND WEST MINNESOTA  *****

CITY           SKY/WX    TMP DP  RH WIND       PRES   REMARKS
FOSSTON        CLOUDY    30  27  86 SW12      29.80S WCI  21
BEMIDJI        CLOUDY    31  26  80 W8        29.79R WCI  24
PARK RAPIDS    CLOUDY    32  23  69 W9        29.79R WCI  24
ELBOW LAKE     CLOUDY    31  28  87 NW7       29.84S FOG     WCI  25
WADENA         CLOUDY    30  25  80 W5        29.81S
DETROIT LAKES  FAIR      32  28  86 W5        29.81F
MOORHEAD       CLOUDY    34  27  75 W8        29.83F
FERGUS FALLS   CLOUDY    30  27  86 W9        29.87S WCI  22
MORRIS MN      CLOUDY    32  28  86 NW8       29.83S WCI  25
STAPLES        CLOUDY    30  27  86 W7        29.82S WCI  23
$$
  *****  WEATHER ELSEWHERE ACROSS MINNESOTA  *****

CITY           SKY/WX    TMP DP  RH WIND       PRES   REMARKS
DULUTH         PTSUNNY   37  33  85 CALM      29.75F
INTRNTL FALLS  CLOUDY    33  30  88 VRB5      29.75R FOG
ELY            CLOUDY    34  34 100 CALM      29.75S FOG
CLOQUET        CLOUDY    36  34  93 CALM      29.77R
WHEATON        CLOUDY    36  32  87 W8        29.86F
BRAINERD       CLOUDY    31  30  96 W6        29.81R FOG
HIBBING        CLOUDY    33  33 100 NW3       29.75F
ALEXANDRIA     CLOUDY    31  27  85 NW7       29.83R WCI  24
SAINT CLOUD    CLOUDY    33  31  92 W6        29.82F
MINNEAPOLIS    CLOUDY    34  30  85 SW7       29.84S
$$

  *****  WEATHER ACROSS SOUTH DAKOTA  *****

CITY           SKY/WX    TMP DP  RH WIND       PRES   REMARKS
SIOUX FALLS    CLOUDY    30  28  92 NW6       29.85F WCI  24
BROOKINGS      CLOUDY    29  26  89 W8        29.84R WCI  21
WATERTOWN      CLOUDY    28  26  92 W6        29.82F WCI  22
HURON          CLOUDY    30  26  85 CALM      29.86F
SISSETON         N/A     32  27  81 NW10      29.84S WCI  24
ABERDEEN       CLOUDY    30  23  75 VRB6      29.83F WCI  24
MITCHELL       CLOUDY    31  26  82 CALM      29.87S
PIERRE         CLOUDY    27  24  89 E13       29.78F WCI  16
MOBRIDGE       CLOUDY    29  23  78 E7        29.76F WCI  22
RAPID CITY     CLOUDY    21  20  96 SE5       29.64F WCI  15
$$

  *****  SOME WEATHER IN NEARBY STATES *****

CITY           SKY/WX    TMP DP  RH WIND       PRES   REMARKS
GLASGOW MT     LGT SNOW  27  24  89 VRB6      29.76S FOG     WCI  20
GREAT FALLS MT CLOUDY    21  19  92 N8        29.75R WCI  11
CHEYENNE WY    FAIR      41  21  44 W6        29.61R
SCOTTSBLUFF NE FAIR      34  24  67 E3        29.64F
OMAHA NE       CLOUDY    34  27  75 N3        29.91R
DES MOINES IA  CLOUDY    33  29  85 N7        29.90S
DAVENPORT IA   CLOUDY    38  35  89 NW8       29.84R
CHICAGO IL     CLOUDY    39  35  86 N7        29.77S
EAU CLAIRE WI  CLOUDY    34  34 100 CALM      29.80F FOG
LA CROSSE WI   CLOUDY    41  34  76 CALM      29.82F
$$

  *****  SOME NATIONAL WEATHER *****

CITY           SKY/WX    TMP DP  RH WIND       PRES   REMARKS
LA GUARDIA NY  CLOUDY    42  30  62 E35G46    29.79F
RALEIGH NC     PTSUNNY   58  49  72 W8        29.29F
ATLANTA GA     CLOUDY    55  51  86 NW22G33   29.41R
NEW ORLEANS LA FAIR      60  44  55 W13       29.86S
OKLAHOMA CITY  FAIR      48  32  53 S10       29.96R
ALBUQUERQUE NM FAIR      39  30  70 S7        29.97S
SALT LAKE CITY CLOUDY    38  33  82 SE23      29.47F
LOS ANGELES CA PTSUNNY   55  46  71 SW13      29.89S
BOISE ID       LGT SNOW  28  27  96 NW10      29.63R VSB 3/4 WCI  19
SEATTLE WA     MOCLDY    36  33  89 N5        29.77R
$$

*** WEATHER ACROSS MANITOBA...SASKATCHEWAN AND ONTARIO ***
                ***ONTARIO***

CITY           SKY/WX    TMP DP  RH WIND       PRES   REMARKS
GERALDTON      FOG       32  32 100 E2        29.74S VSB 1/8
THUNDER BAY    CLOUDY    36  34  93 W5        29.77R
SIOUX LOOKOUT  FLURRIES  32  30  93 VRB2      29.73S
TORONTO        CLOUDY    37  34  87 E12G17    29.79F
BIG TROUT LK   LGT SNOW  25  23  93 SE3       29.80F
PICKLE LAKE    LGT SNOW  28  27  93 SE3       29.74S
DRYDEN         FOG       34  34 100 S3        29.72R VSB 3/8
KENORA         LGT SNOW  32  32 100 SW6       29.71S FOG
$$
                *** MANITOBA***

CITY           SKY/WX    TMP DP  RH WIND       PRES   REMARKS
BRANDON        LGT SNOW  23  21  93 W14       29.71R WCI  11
DAUPHIN        CLOUDY    28  23  80 W16       29.68R WCI  17
ISLAND LAKE    FLURRIES  30  28  93 NE3       29.75S
PILOT MOUND      N/A     25  19  80 W10         N/A  WCI  15
THE PAS        LGT SNOW  23  19  86 N8        29.79R WCI  14
THOMPSON       FLURRIES  14  10  85 N13       29.87S WCI   0
WINNIPEG       CLOUDY    30  27  86 SW10      29.73R WCI  21
LYNN LAKE      LGT SNOW   5   3  92 NE8       29.92S WCI  -8
CHURCHILL      FRZ DRZL  19  19 100 E21       30.03S FOG     WCI   3
GILLAM         LGT SNOW  25  23  93 NE9       29.86S WCI  15
$$
                ***SASKATCHEWAN***

CITY           SKY/WX    TMP DP  RH WIND       PRES   REMARKS
ESTEVAN        FRZ DRZL  21  19  93 W14       29.78R WCI   8
KINDERSLEY     FLURRIES  12   9  85 NW10      29.81F WCI  -1
LLOYDMINSTER   LGT SNOW   9   7  92 N7        29.87R WCI  -3
PRINCE ALBERT  FLURRIES  16  10  79 N9        29.83R WCI   4
REGINA         CLOUDY    19  14  79 W15       29.77S WCI   5
YORKTON        FLURRIES  23  19  86 W10       29.70R WCI  12
N. BATTLEFORD  FLURRIES  10   9  92 NW13      29.87R WCI  -5
LA RONGE       FLURRIES  10   5  79 N7        29.90S WCI   0
SASKATOON      LGT SNOW  12   9  85 N9        29.84R DRFTSNOWWCI   0
SWIFT CURRENT  CLOUDY    16  14  93 NW15      29.75S WCI   1
$$
NOTE: THESE ARE AUTOMATED STATIONS WITH LIMITED QUALITY CONTROL
      "FAIR" INDICATES FEW OR NO CLOUDS BELOW 12,000 FEET WITH NO
      SIGNIFICANT WEATHER AND/OR OBSTRUCTIONS TO VISIBILITY.
      SKY/WX - SKY CONDITION AND SIGNIFICANT WEATHER.
      TMP - AIR TEMPERATURE.    DP   - DEWPOINT TEMPERATURE.
      RH  - RELATIVE HUMIDITY.  PRES - PRESSURE.
      HX  - HEAT INDEX.         WCI  - WIND CHILL INDEX.
$




USA.gov is the U.S. government's official web portal to all federal, state and local government web resources and services.